This is the latest recevied weather packets stored in our database for station/object K3HW. If no packets are shown the sender has not sent any weather packets the latest 10 day(s).
| Time | Temp. | Humidity | Pressure | Rain* | Wind** | Luminosity | Snow |
|---|---|---|---|---|---|---|---|
| 1778104065 | 19.44° C | 77% | 1010.8 hPa | 0 mm | - | 37 W/m² | - |
| 1778103762 | 19.44° C | 76% | 1010.7 hPa | 0 mm | - | 58 W/m² | - |
| 1778103461 | 19.44° C | 77% | 1010.8 hPa | 0 mm | - | 35 W/m² | - |
| 1778103157 | 19.44° C | 77% | 1010.9 hPa | 0 mm | - | 53 W/m² | - |
| 1778102855 | 19.44° C | 77% | 1010.7 hPa | 0 mm | - | 34 W/m² | - |
| 1778102550 | 19.44° C | 78% | 1010.5 hPa | 0 mm | - | 73 W/m² | - |
| 1778102246 | 19.44° C | 78% | 1010.6 hPa | 0 mm | - | 57 W/m² | - |
| 1778101942 | 18.89° C | 78% | 1010.5 hPa | 0 mm | - | 57 W/m² | - |
| 1778101639 | 18.89° C | 79% | 1010.7 hPa | 0 mm | - | 24 W/m² | - |
| 1778101336 | 18.89° C | 78% | 1010.5 hPa | 0 mm | - | 47 W/m² | - |
| 1778101034 | 18.89° C | 79% | 1010.7 hPa | 0 mm | - | 34 W/m² | - |
| 1778100734 | 18.89° C | 79% | 1010.6 hPa | 0 mm | - | 25 W/m² | - |
| 1778100431 | 18.89° C | 79% | 1010.6 hPa | 0 mm | - | 17 W/m² | - |
| 1778100129 | 18.89° C | 79% | 1010.4 hPa | 0 mm | - | 19 W/m² | - |
| 1778099827 | 18.89° C | 79% | 1010.4 hPa | 0 mm | - | 28 W/m² | - |
| 1778099524 | 18.89° C | 79% | 1010.4 hPa | 0 mm | - | 47 W/m² | - |
| 1778099221 | 18.89° C | 79% | 1010.5 hPa | 0 mm | - | 53 W/m² | - |
| 1778098917 | 18.89° C | 79% | 1010.4 hPa | 0 mm | - | 58 W/m² | - |
| 1778098614 | 18.33° C | 79% | 1010.2 hPa | 0 mm | - | 91 W/m² | - |
| 1778098310 | 18.33° C | 79% | 1010.4 hPa | 0 mm | - | 101 W/m² | - |
| 1778098008 | 18.33° C | 80% | 1010.6 hPa | 0 mm | - | 83 W/m² | - |
| 1778097704 | 17.78° C | 80% | 1010.3 hPa | 0 mm | - | 69 W/m² | - |
| 1778097401 | 17.78° C | 80% | 1010.9 hPa | 0 mm | - | 47 W/m² | - |
| 1778097097 | 17.78° C | 81% | 1010.8 hPa | 0 mm | - | 43 W/m² | - |
| 1778096795 | 18.33° C | 81% | 1010.7 hPa | 0 mm | - | 46 W/m² | - |
* Rain latest hour (hover to see other rain measurements)
** Current wind speed in m/s (hover to see current wind gust speed)